This is the latest recevied weather packets stored in our database for station/object SQ9NFI-4. If no packets are shown the sender has not sent any weather packets the latest 10 day(s).
| Time | Temp. | Humidity | Pressure | Rain* | Wind** | Luminosity | Snow |
|---|---|---|---|---|---|---|---|
| 1777840216 | 10° C | 83% | 1016.9 hPa | 0 mm | - | 0 W/m² | - |
| 1777839916 | 10° C | 83% | 1016.9 hPa | 0 mm | - | 0 W/m² | - |
| 1777839616 | 10.56° C | 81% | 1016.9 hPa | 0 mm | - | 0 W/m² | - |
| 1777839316 | 10.56° C | 82% | 1016.9 hPa | 0 mm | - | 0 W/m² | - |
| 1777839016 | 10.56° C | 81% | 1016.9 hPa | 0 mm | - | 0 W/m² | - |
| 1777838716 | 10.56° C | 80% | 1016.9 hPa | 0 mm | - | 0 W/m² | - |
| 1777838416 | 11.11° C | 79% | 1016.6 hPa | 0 mm | - | 0 W/m² | - |
| 1777838116 | 11.11° C | 78% | 1016.6 hPa | 0 mm | - | 0 W/m² | - |
| 1777837816 | 11.11° C | 80% | 1016.9 hPa | 0 mm | - | 0 W/m² | - |
| 1777837516 | 11.67° C | 79% | 1016.9 hPa | 0 mm | - | 0 W/m² | - |
| 1777837216 | 11.67° C | 80% | 1016.9 hPa | 0 mm | - | 0 W/m² | - |
| 1777836916 | 11.67° C | 79% | 1016.9 hPa | 0 mm | - | 0 W/m² | - |
| 1777836616 | 11.67° C | 77% | 1016.9 hPa | 0 mm | - | 0 W/m² | - |
| 1777836316 | 12.22° C | 76% | 1016.6 hPa | 0 mm | - | 0 W/m² | - |
| 1777836016 | 12.22° C | 78% | 1016.6 hPa | 0 mm | - | 0 W/m² | - |
| 1777835716 | 12.78° C | 76% | 1016.6 hPa | 0 mm | - | 0 W/m² | - |
| 1777835416 | 12.78° C | 68% | 1016.6 hPa | 0 mm | - | 0 W/m² | - |
| 1777835116 | 13.33° C | 77% | 1016.6 hPa | 0 mm | - | 0 W/m² | - |
| 1777834816 | 13.33° C | 66% | 1016.6 hPa | 0 mm | - | 0 W/m² | - |
| 1777834516 | 13.89° C | 66% | 1016.6 hPa | 0 mm | - | 0 W/m² | - |
| 1777834216 | 13.89° C | 69% | 1016.3 hPa | 0 mm | - | 0 W/m² | - |
| 1777833916 | 14.44° C | 66% | 1016.3 hPa | 0 mm | - | 0 W/m² | - |
| 1777833616 | 14.44° C | 62% | 1016.3 hPa | 0 mm | - | 0 W/m² | - |
| 1777833316 | 14.44° C | 65% | 1016.3 hPa | 0 mm | - | 0 W/m² | - |
| 1777833016 | 15.56° C | 71% | 1016.3 hPa | 0 mm | - | 0 W/m² | - |
* Rain latest hour (hover to see other rain measurements)
** Current wind speed in m/s (hover to see current wind gust speed)